This is the latest recevied weather packets stored in our database for station/object N5VIS. If no packets are shown the sender has not sent any weather packets the latest 10 day(s).
| Time | Temp. | Humidity | Pressure | Rain* | Wind** | Luminosity | Snow |
|---|---|---|---|---|---|---|---|
| 1777558738 | 23.33° C | 80% | 1013.2 hPa | 0 mm | - | - | - |
| 1777558434 | 22.78° C | 82% | 1013.3 hPa | 0 mm | - | - | - |
| 1777558130 | 22.78° C | 83% | 1013.3 hPa | 0 mm | - | - | - |
| 1777557827 | 22.78° C | 84% | 1013.4 hPa | 0 mm | - | - | - |
| 1777557524 | 22.78° C | 84% | 1013.4 hPa | 0 mm | - | - | - |
| 1777557221 | 22.22° C | 84% | 1013.4 hPa | 0 mm | - | - | - |
| 1777556917 | 21.67° C | 86% | 1013.3 hPa | 0 mm | - | - | - |
| 1777556612 | 21.11° C | 89% | 1013.3 hPa | 0 mm | - | - | - |
| 1777556307 | 21.11° C | 89% | 1013.5 hPa | 0 mm | - | - | - |
| 1777556004 | 21.11° C | 89% | 1013.6 hPa | 0 mm | - | - | - |
| 1777555704 | 21.11° C | 88% | 1013.6 hPa | 0 mm | - | - | - |
| 1777555401 | 21.67° C | 88% | 1013.5 hPa | 0 mm | - | - | - |
| 1777555097 | 20.56° C | 90% | 1013.3 hPa | 0 mm | - | - | - |
| 1777554795 | 21.11° C | 91% | 1013.3 hPa | 0 mm | - | - | - |
| 1777554492 | 20.56° C | 91% | 1013.1 hPa | 0 mm | - | - | - |
| 1777554188 | 20.56° C | 92% | 1013.2 hPa | 0 mm | - | - | - |
| 1777553885 | 20.56° C | 92% | 1013 hPa | 0 mm | - | - | - |
| 1777553581 | 20.56° C | 92% | 1013.4 hPa | 0 mm | - | - | - |
| 1777553277 | 20.56° C | 92% | 1013.2 hPa | 0 mm | - | - | - |
| 1777552974 | 20.56° C | 93% | 1013.3 hPa | 0 mm | - | - | - |
| 1777552674 | 20° C | 93% | 1013.5 hPa | 0 mm | - | - | - |
| 1777552371 | 20° C | 94% | 1013.1 hPa | 0 mm | - | - | - |
| 1777552067 | 20° C | 93% | 1013.1 hPa | 0 mm | - | - | - |
| 1777551764 | 20.56° C | 93% | 1013 hPa | 0 mm | - | - | - |
| 1777551462 | 20.56° C | 94% | 1012.6 hPa | 0 mm | - | - | - |
* Rain latest hour (hover to see other rain measurements)
** Current wind speed in m/s (hover to see current wind gust speed)